H1 CPF 2 NER 2025 8 25 9 237 01 glonass132 H2 1401201 9132 39620 2025 8 25 0 0 0 2025 8 28 23 45 0 900 1 1 0 0 0 1 H9 10 0 60912 0.00000 0 -25150044.656 4361408.577 314454.090 10 0 60912 900.00000 0 -24951792.683 4522973.667 -2912595.306 10 0 60912 1800.00000 0 -24363138.734 4564470.553 -6083169.779 10 0 60912 2700.00000 0 -23411925.118 4435760.934 -9135763.114 10 0 60912 3600.00000 0 -22137604.662 4093701.139 -12011120.252 10 0 60912 4500.00000 0 -20589597.200 3504216.392 -14653386.540 10 0 60912 5400.00000 0 -18825246.669 2643996.869 -17011193.558 10 0 60912 6300.00000 0 -16907463.641 1501742.604 -19038660.323 10 0 60912 7200.00000 0 -14902151.428 78903.053 -20696290.178 10 0 60912 8100.00000 0 -12875523.005 -1610121.885 -21951745.729 10 0 60912 9000.00000 0 -10891420.666 -3538330.063 -22780486.390 10 0 60912 9900.00000 0 -9008750.430 -5667002.184 -23166255.707 10 0 60912 10800.00000 0 -7279138.433 -7947088.950 -23101408.428 10 0 60912 11700.00000 0 -5744907.444 -10321044.155 -22587070.282 10 0 60912 12600.00000 0 -4437458.348 -12725028.713 -21633126.584 10 0 60912 13500.00000 0 -3376124.495 -15091394.662 -20258039.055 10 0 60912 14400.00000 0 -2567547.011 -17351346.022 -18488493.608 10 0 60912 15300.00000 0 -2005597.185 -19437665.461 -16358885.224 10 0 60912 16200.00000 0 -1671848.874 -21287392.471 -13910649.416 10 0 60912 17100.00000 0 -1536580.415 -22844340.427 -11191453.005 10 0 60912 18000.00000 0 -1560262.902 -24061346.260 -8254260.069 10 0 60912 18900.00000 0 -1695470.726 -24902157.660 -5156291.680 10 0 60912 19800.00000 0 -1889132.133 -25342878.003 -1957900.501 10 0 60912 20700.00000 0 -2085022.848 -25372907.952 1278616.730 10 0 60912 21600.00000 0 -2226395.431 -24995344.202 4490244.377 10 0 60912 22500.00000 0 -2258631.231 -24226819.191 7614485.565 10 0 60912 23400.00000 0 -2131801.093 -23096789.391 10590586.857 10 0 60912 24300.00000 0 -1803025.118 -21646303.421 13360725.136 10 0 60912 25200.00000 0 -1238530.791 -19926303.194 15871132.889 10 0 60912 26100.00000 0 -415322.006 -17995530.805 18073139.765 10 0 60912 27000.00000 0 677611.608 -15918130.193 19924110.431 10 0 60912 27900.00000 0 2038595.885 -13761044.874 21388261.232 10 0 60912 28800.00000 0 3653112.955 -11591320.952 22437340.863 10 0 60912 29700.00000 0 5494188.165 -9473427.853 23051163.226 10 0 60912 30600.00000 0 7523306.735 -7466707.753 23217983.605 10 0 60912 31500.00000 0 9691821.932 -5623058.723 22934712.294 10 0 60912 32400.00000 0 11942796.370 -3984946.361 22206962.802 10 0 60912 33300.00000 0 14213200.402 -2583824.726 21048934.607 10 0 60912 34200.00000 0 16436376.998 -1439030.266 19483133.347 10 0 60912 35100.00000 0 18544671.735 -557192.845 17539933.976 10 0 60912 36000.00000 0 20472119.720 67813.377 15256995.131 10 0 60912 36900.00000 0 22157078.892 454378.613 12678535.503 10 0 60912 37800.00000 0 23544701.204 632147.277 9854485.387 10 0 60912 38700.00000 0 24589139.620 640532.025 6839528.928 10 0 60912 39600.00000 0 25255399.497 526814.649 3692054.624 10 0 60912 40500.00000 0 25520757.353 343913.755 473033.552 10 0 60912 41400.00000 0 25375687.657 147913.055 -2755153.790 10 0 60912 42300.00000 0 24824258.510 -4545.690 -5929919.817 10 0 60912 43200.00000 0 23883978.993 -58895.183 -8989678.503 10 0 60912 44100.00000 0 22585103.701 34810.670 -11875037.157 10 0 60912 45000.00000 0 20969422.601 319543.694 -14529948.231 10 0 60912 45900.00000 0 19088585.843 829242.111 -16902798.823 10 0 60912 46800.00000 0 17002032.601 1587132.923 -18947416.585 10 0 60912 47700.00000 0 14774609.703 2604508.182 -20623972.255 10 0 60912 48600.00000 0 12473978.834 3880008.489 -21899761.055 10 0 60912 49500.00000 0 10167920.057 5399445.869 -22749847.373 10 0 60912 50400.00000 0 7921643.892 7136175.636 -23157559.769 10 0 60912 51300.00000 0 5795223.965 9052003.789 -23114826.100 10 0 60912 52200.00000 0 3841257.346 11098593.947 -22622341.604 10 0 60912 53100.00000 0 2102850.339 13219316.605 -21689565.888 10 0 60912 54000.00000 0 612013.949 15351464.639 -20334548.070 10 0 60912 54900.00000 0 -611463.829 17428743.239 -18583582.651 10 0 60912 55800.00000 0 -1560621.799 19383930.319 -16470702.101 10 0 60912 56700.00000 0 -2241380.403 21151595.930 -14037015.492 10 0 60912 57600.00000 0 -2672045.949 22670766.150 -11329905.757 10 0 60912 58500.00000 0 -2882285.976 23887418.876 -8402101.282 10 0 60912 59400.00000 0 -2911620.200 24756705.828 -5310640.353 10 0 60912 60300.00000 0 -2807492.322 25244806.504 -2115749.356 10 0 60912 61200.00000 0 -2623005.934 25330335.435 1120342.233 10 0 60912 62100.00000 0 -2414422.233 25005243.227 4334625.760 10 0 60912 63000.00000 0 -2238527.304 24275173.413 7464550.993 10 0 60912 63900.00000 0 -2149982.228 23159260.663 10449252.003 10 0 60912 64800.00000 0 -2198769.631 21689379.758 13230736.405 10 0 60912 65700.00000 0 -2427845.790 19908877.911 15755014.148 10 0 60912 66600.00000 0 -2871098.187 17870844.906 17973143.619 10 0 60912 67500.00000 0 -3551695.014 15635994.700 19842174.972 10 0 60912 68400.00000 0 -4480896.102 13270248.052 21325973.043 10 0 60912 69300.00000 0 -5657375.016 10842117.675 22395904.945 10 0 60912 70200.00000 0 -7067080.347 8420005.039 23031380.349 10 0 60912 71100.00000 0 -8683641.683 6069520.833 23220235.446 10 0 60912 72000.00000 0 -10469303.067 3850939.590 22958954.575 10 0 60912 72900.00000 0 -12376344.959 1816892.739 22252726.499 10 0 60912 73800.00000 0 -14348935.761 10394.075 21115335.189 10 0 60912 74700.00000 0 -16325336.338 -1536722.263 19568887.831 10 0 60912 75600.00000 0 -18240366.554 -2804888.513 17643385.510 10 0 60912 76500.00000 0 -20028032.191 -3787371.401 15376144.659 10 0 60912 77400.00000 0 -21624203.832 -4490299.684 12811079.951 10 0 60912 78300.00000 0 -22969237.144 -4932151.367 9997861.716 10 0 60912 79200.00000 0 -24010426.109 -5142723.054 6990963.236 10 0 60912 80100.00000 0 -24704187.389 -5161625.199 3848615.436 10 0 60912 81000.00000 0 -25017884.828 -5036366.780 631688.277 10 0 60912 81900.00000 0 -24931217.702 -4820109.924 -2597480.291 10 0 60912 82800.00000 0 -24437114.165 -4569188.977 -5776285.685 10 0 60912 83700.00000 0 -23542091.725 -4340498.472 -8843065.523 10 0 60912 84600.00000 0 -22266068.615 -4188860.185 -11738292.754 10 0 60912 85500.00000 0 -20641632.737 -4164480.562 -14405729.962 10 0 60913 0.00000 0 -18712797.693 -4310606.280 -16793522.269 10 0 60913 900.00000 0 -16533295.521 -4661477.717 -18855208.688 10 0 60913 1800.00000 0 -14164478.968 -5240667.543 -20550628.932 10 0 60913 2700.00000 0 -11672916.389 -6059876.092 -21846712.075 10 0 60913 3600.00000 0 -9127781.296 -7118235.826 -22718128.113 10 0 60913 4500.00000 0 -6598143.819 -8402156.047 -23147790.635 10 0 60913 5400.00000 0 -4150276.723 -9885716.374 -23127200.048 10 0 60913 6300.00000 0 -1845088.022 -11531594.404 -22656620.026 10 0 60913 7200.00000 0 264212.799 -13292490.348 -21745082.965 10 0 60913 8100.00000 0 2134117.617 -15112990.356 -20410223.531 10 0 60913 9000.00000 0 3732407.902 -16931791.381 -18677942.701 10 0 60913 9900.00000 0 5039262.014 -18684194.823 -16581908.135 10 0 60913 10800.00000 0 6047835.415 -20304764.338 -14162900.027 10 0 60913 11700.00000 0 6764290.026 -21730035.842 -11468014.903 10 0 60913 12600.00000 0 7207272.210 -22901165.047 -8549742.902 10 0 60913 13500.00000 0 7406862.588 -23766400.207 -5464936.947 10 0 60913 14400.00000 0 7403043.411 -24283275.000 -2273694.625 10 0 60913 15300.00000 0 7243749.942 -24420428.177 961824.337 10 0 60913 16200.00000 0 6982590.165 -24158972.707 4178620.667 10 0 60913 17100.00000 0 6676331.222 -23493356.314 7314093.089 10 0 60913 18000.00000 0 6382260.843 -22431677.215 10307265.347 10 0 60913 18900.00000 0 6155537.051 -20995442.239 13099977.805 10 0 60913 19800.00000 0 6046639.557 -19218778.216 15638019.724 10 0 60913 20700.00000 0 6099031.360 -17147130.732 17872179.865 10 0 60913 21600.00000 0 6347129.695 -14835505.716 19759195.252 10 0 60913 22500.00000 0 6814671.839 -12346328.292 21262580.335 10 0 60913 23400.00000 0 7513544.211 -9747008.901 22353321.470 10 0 60913 24300.00000 0 8443123.413 -7107318.277 23010424.631 10 0 60913 25200.00000 0 9590156.257 -4496680.197 23221307.161 10 0 60913 26100.00000 0 10929183.282 -1981493.710 22982027.425 10 0 60913 27000.00000 0 12423487.707 377405.284 22297349.188 10 0 60913 27900.00000 0 14026530.164 2527039.467 21180640.450 10 0 60913 28800.00000 0 15683809.577 4424249.171 19653609.305 10 0 60913 29700.00000 0 17335073.096 6037235.855 17745882.153 10 0 60913 30600.00000 0 18916783.719 7346627.840 15494432.236 10 0 60913 31500.00000 0 20364743.524 8346025.801 12942869.032 10 0 60913 32400.00000 0 21616763.978 9042006.862 10140601.505 10 0 60913 33300.00000 0 22615272.603 9453588.324 7141890.444 10 0 60913 34200.00000 0 23309747.636 9611174.329 4004807.313 10 0 60913 35100.00000 0 23658879.156 9555030.085 790118.821 10 0 60913 36000.00000 0 23632366.143 9333347.952 -2439881.981 10 0 60913 36900.00000 0 23212273.758 8999986.681 -5622576.019 10 0 60913 37800.00000 0 22393893.173 8611978.927 -8696227.142 10 0 60913 38700.00000 0 21186066.795 8226911.974 -11601176.516 10 0 60913 39600.00000 0 19610963.871 7900292.129 -14280999.364 10 0 60913 40500.00000 0 17703314.369 7683004.194 -16683601.599 10 0 60913 41400.00000 0 15509131.538 7618973.604 -18762234.948 10 0 60913 42300.00000 0 13083975.065 7743130.584 -20476410.600 10 0 60913 43200.00000 0 10490825.876 8079763.167 -21792693.371 10 0 60913 44100.00000 0 7797660.051 8641329.784 -22685360.592 10 0 60913 45000.00000 0 5074822.000 9427782.916 -23136912.426 10 0 60913 45900.00000 0 2392305.617 10426433.957 -23138423.155 10 0 60913 46800.00000 0 -182943.808 11612366.668 -22689725.938 10 0 60913 47700.00000 0 -2589594.781 12949383.452 -21799426.669 10 0 60913 48600.00000 0 -4774255.065 14391446.082 -20484745.868 10 0 60913 49500.00000 0 -6693460.456 15884551.436 -18771190.864 10 0 60913 50400.00000 0 -8315243.800 17368964.038 -16692063.920 10 0 60913 51300.00000 0 -9620218.782 18781711.742 -14287815.329 10 0 60913 52200.00000 0 -10602133.421 20059239.309 -11605253.756 10 0 60913 53100.00000 0 -11267870.653 21140107.478 -8696629.246 10 0 60913 54000.00000 0 -11636896.936 21967622.857 -5618607.175 10 0 60913 54900.00000 0 -11740183.401 22492286.660 -2431153.826 10 0 60913 55800.00000 0 -11618646.703 22673957.859 803643.568 10 0 60913 56700.00000 0 -11321177.231 22483638.513 4022798.074 10 0 60913 57600.00000 0 -10902340.055 21904805.290 7163660.478 10 0 60913 58500.00000 0 -10419847.754 20934230.652 10165147.410 10 0 60913 59400.00000 0 -9931913.805 19582259.163 12968935.236 10 0 60913 60300.00000 0 -9494599.875 17872527.663 15520595.733 10 0 60913 61200.00000 0 -9159270.132 15841141.684 17770651.148 10 0 60913 62100.00000 0 -8970260.568 13535343.399 19675528.332 10 0 60913 63000.00000 0 -8962861.640 11011727.552 21198394.068 10 0 60913 63900.00000 0 -9161698.810 8334080.435 22309856.392 10 0 60913 64800.00000 0 -9579578.362 5570932.191 22988519.655 10 0 60913 65700.00000 0 -10216846.131 2792924.077 23221384.008 10 0 60913 66600.00000 0 -11061285.143 70099.426 23004083.022 10 0 60913 67500.00000 0 -12088555.761 -2530770.368 22340956.111 10 0 60913 68400.00000 0 -13263159.416 -4948715.494 21244955.380 10 0 60913 69300.00000 0 -14539885.535 -7130849.854 19737389.318 10 0 60913 70200.00000 0 -15865681.312 -9034312.998 17847508.538 10 0 60913 71100.00000 0 -17181866.749 -10627793.269 15611941.407 10 0 60913 72000.00000 0 -18426603.017 -11892570.689 13073990.013 10 0 60913 72900.00000 0 -19537511.785 -12823037.850 10282799.308 10 0 60913 73800.00000 0 -20454336.687 -13426678.425 7292414.563 10 0 60913 74700.00000 0 -21121536.146 -13723505.183 4160744.467 10 0 60913 75600.00000 0 -21490699.305 -13744981.637 948448.967 10 0 60913 76500.00000 0 -21522683.823 -13532472.888 -2282227.416 10 0 60913 77400.00000 0 -21189385.527 -13135290.753 -5468654.809 10 0 60913 78300.00000 0 -20475064.921 -12608415.302 -8549026.973 10 0 60913 79200.00000 0 -19377173.789 -12009988.556 -11463556.892 10 0 60913 80100.00000 0 -17906645.775 -11398685.805 -14155635.871 10 0 60913 81000.00000 0 -16087637.083 -10831075.312 -16572933.610 10 0 60913 81900.00000 0 -13956726.328 -10359077.893 -18668417.815 10 0 60913 82800.00000 0 -11561605.174 -10027633.834 -20401273.290 10 0 60913 83700.00000 0 -8959312.683 -9872676.119 -21737702.394 10 0 60913 84600.00000 0 -6214085.464 -9919496.270 -22651590.950 10 0 60913 85500.00000 0 -3394911.893 -10181572.696 -23125026.188 10 0 60914 0.00000 0 -572891.475 -10659912.145 -23148656.123 10 0 60914 900.00000 0 2181492.984 -11342933.609 -22721882.645 10 0 60914 1800.00000 0 4801073.486 -12206900.256 -21852883.847 10 0 60914 2700.00000 0 7224558.147 -13216883.285 -20558464.407 10 0 60914 3600.00000 0 9398845.183 -14328217.572 -18863735.962 10 0 60914 4500.00000 0 11280994.502 -15488388.674 -16801633.057 10 0 60914 5400.00000 0 12839774.268 -16639271.970 -14412273.523 10 0 60914 6300.00000 0 14056717.843 -17719629.384 -11742175.408 10 0 60914 7200.00000 0 14926647.134 -18667757.807 -8843345.748 10 0 60914 8100.00000 0 15457641.098 -19424176.543 -5772259.326 10 0 60914 9000.00000 0 15670451.743 -19934239.138 -2588748.012 10 0 60914 9900.00000 0 15597393.662 -20150558.042 645176.570 10 0 60914 10800.00000 0 15280755.642 -20035138.481 3866542.869 10 0 60914 11700.00000 0 14770803.338 -19561130.440 7012656.612 10 0 60914 12600.00000 0 14123459.367 -18714124.105 10022329.967 10 0 60914 13500.00000 0 13397760.723 -17492933.799 12837077.652 10 0 60914 14400.00000 0 12653202.543 -15909837.407 15402255.978 10 0 60914 15300.00000 0 11947081.583 -13990261.532 17668122.326 10 0 60914 16200.00000 0 11331952.201 -11771926.081 19590794.633 10 0 60914 17100.00000 0 10853302.241 -9303484.637 21133092.889 10 0 60914 18000.00000 0 10547546.306 -6642717.895 22265247.303 10 0 60914 18900.00000 0 10440420.064 -3854355.728 22965460.741 10 0 60914 19800.00000 0 10545841.929 -1007618.368 23220315.970 10 0 60914 20700.00000 0 10865288.736 1826421.593 23025021.267 10 0 60914 21600.00000 0 11387710.429 4577547.886 22383490.955 10 0 60914 22500.00000 0 12089986.399 7179068.931 21308260.283 10 0 60914 23400.00000 0 12937903.750 9570336.895 19820236.992 10 0 60914 24300.00000 0 13887616.274 11699014.846 17948294.622 10 0 60914 25200.00000 0 14887523.154 13522999.851 15728715.254 10 0 60914 26100.00000 0 15880489.159 15011923.968 13204492.039 10 0 60914 27000.00000 0 16806313.926 16148172.357 10424504.229 10 0 60914 27900.00000 0 17604347.551 16927377.500 7442579.751 10 0 60914 28800.00000 0 18216143.441 17358369.907 4316462.536 10 0 60914 29700.00000 0 18588037.553 17462588.084 1106703.648 10 0 60914 30600.00000 0 18673545.923 17272972.841 -2124503.165 10 0 60914 31500.00000 0 18435479.563 16832392.394 -5314519.527 10 0 60914 32400.00000 0 17847687.302 16191664.275 -8401471.414 10 0 60914 33300.00000 0 16896352.300 15407257.025 -11325445.885 10 0 60914 34200.00000 0 15580786.430 14538768.065 -14029652.463 10 0 60914 35100.00000 0 13913687.448 13646283.771 -16461526.631 10 0 60914 36000.00000 0 11920846.216 12787732.798 -18573753.915 10 0 60914 36900.00000 0 9640314.193 12016344.238 -20325194.419 10 0 60914 37800.00000 0 7121063.942 11378317.939 -21681689.583 10 0 60914 38700.00000 0 4421196.639 10910805.572 -22616735.127 10 0 60914 39600.00000 0 1605769.655 10640288.184 -23112006.589 10 0 60914 40500.00000 0 -1255666.664 10581419.364 -23157726.733 10 0 60914 41400.00000 0 -4091721.558 10736383.745 -22752866.959 10 0 60914 42300.00000 0 -6831895.991 11094798.830 -21905178.082 10 0 60914 43200.00000 0 -9409281.003 11634165.264 -20631049.030 10 0 60914 44100.00000 0 -11763110.013 12320847.394 -18955195.429 10 0 60914 45000.00000 0 -13841058.510 13111543.334 -16910183.377 10 0 60914 45900.00000 0 -15601195.026 13955182.797 -14535797.130 10 0 60914 46800.00000 0 -17013501.691 14795172.431 -11878262.669 10 0 60914 47700.00000 0 -18060900.765 15571893.316 -8989342.285 10 0 60914 48600.00000 0 -18739744.425 16225344.164 -5925318.202 10 0 60914 49500.00000 0 -19059747.946 16697817.329 -2745885.716 10 0 60914 50400.00000 0 -19043370.157 16936493.101 487021.494 10 0 60914 51300.00000 0 -18724668.743 16895841.231 3710449.739 10 0 60914 52200.00000 0 -18147680.414 16539726.922 6861662.326 10 0 60914 53100.00000 0 -17364396.195 15843131.319 9879369.721 10 0 60914 54000.00000 0 -16432419.206 14793413.207 12704927.852 10 0 60914 54900.00000 0 -15412405.507 13391058.416 15283480.469 10 0 60914 55800.00000 0 -14365397.340 11649885.401 17565022.973 10 0 60914 56700.00000 0 -13350162.109 9596698.614 19505367.179 10 0 60914 57600.00000 0 -12420649.468 7270404.547 21066988.903 10 0 60914 58500.00000 0 -11623673.316 4720627.769 22219742.899 10 0 60914 59400.00000 0 -10996915.335 2005884.947 22941432.593 10 0 60914 60300.00000 0 -10567332.737 -808607.234 23218225.038 10 0 60914 61200.00000 0 -10350035.585 -3653399.449 23044904.472 10 0 60914 62100.00000 0 -10347679.282 -6457450.785 22424960.900 10 0 60914 63000.00000 0 -10550396.259 -9150835.092 21370513.008 10 0 60914 63900.00000 0 -10936268.608 -11667401.846 19902067.579 10 0 60914 64800.00000 0 -11472321.071 -13947282.904 18048120.352 10 0 60914 65700.00000 0 -12115992.377 -15939142.952 15844605.902 10 0 60914 66600.00000 0 -12817023.284 -17602081.935 13334206.764 10 0 60914 67500.00000 0 -13519682.412 -18907111.988 10565534.393 10 0 60914 68400.00000 0 -14165237.005 -19838148.749 7592196.918 10 0 60914 69300.00000 0 -14694565.396 -20392476.729 4471770.755 10 0 60914 70200.00000 0 -15050801.939 -20580669.995 1264695.080 10 0 60914 71100.00000 0 -15181903.446 -20425971.868 -1966890.328 10 0 60914 72000.00000 0 -15043029.187 -19963159.643 -5160341.955 10 0 60914 72900.00000 0 -14598633.909 -19236941.811 -8253721.460 10 0 60914 73800.00000 0 -13824184.996 -18299954.770 -11186993.499 10 0 60914 74700.00000 0 -12707430.316 -17210442.795 -13903189.321 10 0 60914 75600.00000 0 -11249161.846 -16029718.465 -16349513.579 10 0 60914 76500.00000 0 -9463441.082 -14819510.027 -18478372.773 10 0 60914 77400.00000 0 -7377274.620 -13639307.126 -20248305.105 10 0 60914 78300.00000 0 -5029751.287 -12543816.505 -21624793.423 10 0 60914 79200.00000 0 -2470674.646 -11580634.882 -22580945.096 10 0 60914 80100.00000 0 241253.992 -10788237.205 -23098025.112 10 0 60914 81000.00000 0 3040628.077 -10194365.406 -23165831.504 10 0 60914 81900.00000 0 5857813.892 -9814886.028 -22782905.098 10 0 60914 82800.00000 0 8621611.962 -9653165.493 -21956568.765 10 0 60914 83700.00000 0 11261991.577 -9699989.922 -20702794.571 10 0 60914 84600.00000 0 13712784.760 -9934033.500 -19045900.589 10 0 60914 85500.00000 0 15914227.260 -10322855.954 -17018082.548 10 0 60915 0.00000 0 17815240.134 -10824387.169 -14658789.064 10 0 60915 900.00000 0 19375357.229 -11388836.290 -12013950.987 10 0 60915 1800.00000 0 20566215.165 -11960943.376 -9135083.097 10 0 60915 2700.00000 0 21372546.746 -12482478.363 -6078271.812 10 0 60915 3600.00000 0 21792633.799 -12894879.745 -2903072.388 10 0 60915 4500.00000 0 21838202.158 -13141920.117 328663.018 10 0 60915 5400.00000 0 21533764.143 -13172284.259 3554002.164 10 0 60915 6300.00000 0 20915437.709 -12941949.228 6710169.382 10 0 60915 7200.00000 0 20029293.731 -12416264.603 9735776.638 10 0 60915 8100.00000 0 18929302.961 -11571644.031 12572023.919 10 0 60915 9000.00000 0 17674970.945 -10396796.104 15163844.852 10 0 60915 9900.00000 0 16328762.053 -8893442.466 17460974.833 10 0 60915 10800.00000 0 14953422.197 -7076492.942 19418921.062 10 0 60915 11700.00000 0 13609313.373 -4973670.556 20999816.232 10 0 60915 12600.00000 0 12351872.046 -2624602.391 22173140.249 10 0 60915 13500.00000 0 11229297.422 -79414.453 22916297.302 10 0 60915 14400.00000 0 10280565.413 2603110.899 23215038.535 10 0 60915 15300.00000 0 9533850.032 5357738.573 23063723.593 10 0 60915 16200.00000 0 9005416.587 8115254.461 22465417.290 10 0 60915 17100.00000 0 8699031.259 10805107.594 21431820.582 10 0 60915 18000.00000 0 8605910.185 13358112.359 19983037.875 10 0 60915 18900.00000 0 8705208.873 15709100.239 18147185.479 10 0 60915 19800.00000 0 8965030.510 17799412.665 15959848.661 10 0 60915 20700.00000 0 9343910.410 19579133.089 13463397.385 10 0 60915 21600.00000 0 9792714.179 21008967.018 10706173.222 10 0 60915 22500.00000 0 10256870.133 22061693.032 7741562.283 10 0 60915 23400.00000 0 10678842.496 22723125.303 4626971.151 10 0 60915 24300.00000 0 11000741.828 22992548.074 1422724.699 10 0 60915 25200.00000 0 11166963.151 22882604.259 -1809093.724 10 0 60915 26100.00000 0 11126740.825 22418642.822 -5005837.913 10 0 60915 27000.00000 0 10836512.365 21637552.026 -8105507.600 10 0 60915 27900.00000 0 10261991.061 20586127.063 -11047947.292 10 0 60915 28800.00000 0 9379859.107 19319040.022 -13776012.047 10 0 60915 29700.00000 0 8179008.566 17896496.880 -16236677.574 10 0 60915 30600.00000 0 6661276.205 16381679.398 -18382073.025 10 0 60915 31500.00000 0 4841639.208 14838078.952 -20170416.176 10 0 60915 32400.00000 0 2747861.320 13326833.992 -21566832.577 10 0 60915 33300.00000 0 419601.855 11904182.842 -22544042.357 10 0 60915 34200.00000 0 -2092977.388 10619138.851 -23082900.867 10 0 60915 35100.00000 0 -4731051.199 9511485.730 -23172782.086 10 0 60915 36000.00000 0 -7429340.993 8610177.573 -22811796.664 10 0 60915 36900.00000 0 -10118604.986 7932211.195 -22006839.584 10 0 60915 37800.00000 0 -12728305.561 7482018.547 -20773465.718 10 0 60915 38700.00000 0 -15189343.108 7251405.093 -19135594.858 10 0 60915 39600.00000 0 -17436742.293 7220036.904 -17125051.245 10 0 60915 40500.00000 0 -19412178.365 7356455.856 -14780945.957 10 0 60915 41400.00000 0 -21066237.498 7619579.768 -12148913.845 10 0 60915 42300.00000 0 -22360316.056 7960623.396 -9280219.869 10 0 60915 43200.00000 0 -23268078.830 8325358.100 -6230752.582 10 0 60915 44100.00000 0 -23776414.971 8656613.249 -3059925.047 10 0 60915 45000.00000 0 -23885851.664 8896911.985 170494.344 10 0 60915 45900.00000 0 -23610408.830 8991128.098 3397597.127 10 0 60915 46800.00000 0 -22976902.047 8889049.977 6558571.082 10 0 60915 47700.00000 0 -22023724.467 8547741.658 9591932.184 10 0 60915 48600.00000 0 -20799160.681 7933599.992 12438727.066 10 0 60915 49500.00000 0 -19359305.210 7024020.200 15043681.837 10 0 60915 50400.00000 0 -17765674.802 5808599.095 17356274.457 10 0 60915 51300.00000 0 -16082616.161 4289825.142 19331709.963 10 0 60915 52200.00000 0 -14374618.775 2483226.446 20931780.175 10 0 60915 53100.00000 0 -12703645.801 416970.641 22125592.126 10 0 60915 54000.00000 0 -11126594.474 -1869066.395 22890152.401 10 0 60915 54900.00000 0 -9692991.373 -4324724.088 23210797.510 10 0 60915 55800.00000 0 -8443017.518 -6891413.814 23081463.377 10 0 60915 56700.00000 0 -7405944.070 -9504331.898 22504790.099 10 0 60915 57600.00000 0 -6599042.038 -12094937.807 21492060.971 10 0 60915 58500.00000 0 -6027009.673 -14593595.704 20062977.699 10 0 60915 59400.00000 0 -5681939.726 -16932271.029 18245276.451 10 0 60915 60300.00000 0 -5543826.520 -19047171.650 16074192.097 10 0 60915 61200.00000 0 -5581590.603 -20881225.298 13591780.579 10 0 60915 62100.00000 0 -5754577.401 -22386291.714 10846111.818 10 0 60915 63000.00000 0 -6014466.790 -23525018.621 7890347.850 10 0 60915 63900.00000 0 -6307513.410 -24272265.081 4781723.123 10 0 60915 64800.00000 0 -6577023.778 -24616033.411 1580445.699 10 0 60915 65700.00000 0 -6765966.208 -24557870.974 -1651460.200 10 0 60915 66600.00000 0 -6819603.776 -24112724.924 -4851348.549 10 0 60915 67500.00000 0 -6688039.349 -23308255.631 -7957160.160 10 0 60915 68400.00000 0 -6328565.026 -22183636.961 -10908622.528 10 0 60915 69300.00000 0 -5707716.246 -20787893.008 -13648417.715 10 0 60915 70200.00000 0 -4802942.859 -19177840.286 -16123295.662 10 0 60915 71100.00000 0 -3603825.268 -17415720.915 -18285111.228 10 0 60915 72000.00000 0 -2112782.589 -15566625.455 -20091764.581 10 0 60915 72900.00000 0 -345240.918 -13695812.905 -21508026.426 10 0 60915 73800.00000 0 1670747.700 -11866039.851 -22506231.652 10 0 60915 74700.00000 0 3895421.975 -10135010.541 -23066827.453 10 0 60915 75600.00000 0 6278727.608 -8553054.699 -23178764.690 10 0 60915 76500.00000 0 8762175.892 -7161130.523 -22839724.224 10 0 60915 77400.00000 0 11281068.616 -5989236.754 -22056173.030 10 0 60915 78300.00000 0 13766997.572 -5055300.660 -20843248.192 10 0 60915 79200.00000 0 16150515.023 -4364588.723 -19224470.187 10 0 60915 80100.00000 0 18363863.796 -3909664.835 -17231290.305 10 0 60915 81000.00000 0 20343652.751 -3670897.554 -14902480.424 10 0 60915 81900.00000 0 22033365.225 -3617494.555 -12283376.659 10 0 60915 82800.00000 0 23385594.781 -3709019.876 -9424991.617 10 0 60915 83700.00000 0 24363913.875 -3897328.761 -6383012.882 10 0 60915 84600.00000 0 24944296.568 -4128836.888 -3216707.909 10 0 60915 85500.00000 0 25116035.286 -4347026.352 12242.292 99